Flag for Colombia Weather past 2 weeks in Barranquilla, Colombia

Now
91 °F

Scattered clouds.


Feels Like: 105 °F
Forecast: 78 / 89 °F
Wind: 7 mph from Southeast

Location: Barranquilla / Ernestocortissoz

Current Time: Aug 23, 2014 at 12:48:08 PM

Latest Report: Aug 23, 2014 at 12:00 PM


Visibility: N/A

Pressure: 29.86 "Hg

Humidity: 63%

Dew point: 77 °F

Location of BarranquillaLocation

Historic Weather in Barranquilla — Graph

°F

Barranquilla temperature yesterday

Maximum temperature yesterday: 95 °F (at 11:00 AM)
Minimum temperature yesterday: 77 °F (at 2:00 PM)
Average temperature yesterday: 83 °F

Past Weeks' High & Low Weather Summary

 TemperatureHumidityPressure
High95 °F (Aug 8, 12:00 PM)100% (Aug 9, 4:00 AM)29.94 "Hg (Aug 9, 4:00 AM)
Low73 °F (Aug 20, 6:00 AM)53% (Aug 8, 12:00 PM)29.75 "Hg (Aug 22, 4:00 PM)
Average84 °F82%29.84 "Hg
* Reported Aug 8 11:00 AM — Aug 23 11:00 AM, Barranquilla, Weather by CustomWeather, © 2014

Note: Actual official high and low records may vary slightly from our data, if they occured in-between our weather recording intervals... More about our weather records

Advertising

Barranquilla weather history for previous 24 hours

 ConditionsComfort  
Time TempWeatherWind HumidityBarometerVisibility
11:00 AM
Aug 23
90 °FScattered clouds.9 mph63%29.88 "HgN/A
10:00 AM86 °FScattered clouds.13 mph70%29.89 "HgN/A
9:00 AM84 °FPassing clouds.9 mph74%29.88 "HgN/A
8:00 AM81 °FPassing clouds.9 mph89%29.87 "HgN/A
7:00 AM77 °FFog.7 mph100%29.86 "Hg3 mi
6:00 AM77 °FFog.9 mph100%29.84 "Hg3 mi
5:00 AM77 °FFog.7 mph100%29.81 "Hg2 mi
4:00 AM79 °FPassing clouds.3 mph94%29.80 "HgN/A
3:00 AM79 °FPassing clouds.No wind94%29.80 "HgN/A
2:00 AM79 °FPassing clouds.2 mph94%29.80 "HgN/A
1:00 AM79 °FPassing clouds.2 mph94%29.83 "HgN/A
12:00 AM79 °FPassing clouds.5 mph94%29.83 "HgN/A
11:00 PM
Aug 22
81 °FPassing clouds.7 mph94%29.87 "HgN/A
10:00 PM81 °FPassing clouds.8 mph89%29.87 "HgN/A
9:00 PM81 °FPassing clouds.7 mph89%29.85 "HgN/A
8:00 PM81 °FPartly cloudy.9 mph89%29.84 "HgN/A
7:00 PM81 °FPartly cloudy.3 mph94%29.82 "HgN/A
6:00 PM81 °FBroken clouds.3 mph89%29.80 "HgN/A
5:00 PM82 °FBroken clouds.7 mph84%29.76 "Hg3 mi
4:00 PM82 °FFog.9 mph84%29.75 "Hg4 mi
3:00 PM79 °FBroken clouds.6 mph100%29.76 "HgN/A
2:00 PM77 °FHeavy rain. Broken clouds.10 mph100%29.80 "Hg2 mi
1:00 PM88 °FScattered showers. Scattered clouds.15 mph70%29.79 "Hg5 mi
12:00 PM93 °FPartly sunny.3 mph56%29.82 "HgN/A
Weather by CustomWeather, © 2014

See weather overviewHow to use our weather pages